EST,Max TemperatureF,Mean TemperatureF,Min TemperatureF,Max Dew PointF,MeanDew PointF,Min DewpointF,Max Humidity, Mean Humidity, Min Humidity, Max Sea Level PressureIn, Mean Sea Level PressureIn, Min Sea Level PressureIn, Max VisibilityMiles, Mean VisibilityMiles, Min VisibilityMiles, Max Wind SpeedMPH, Mean Wind SpeedMPH, Max Gust SpeedMPH,PrecipitationIn, CloudCover, Events, WindDirDegrees
2011-12-1,75,64,54,59,53,50,87,67,51,30.18,30.11,30.04,10,10,10,16,10,20,0.01,2,,345
2011-12-2,75,70,66,60,55,52,66,55,43,30.27,30.22,30.16,10,10,10,18,15,29,0.00,5,,52
2011-12-3,79,76,72,62,58,52,71,56,48,30.28,30.25,30.21,10,10,10,23,17,30,0.00,4,Rain,66
2011-12-4,80,76,73,67,64,56,78,67,55,30.21,30.15,30.12,10,10,10,21,18,32,0.00,6,Rain,68
2011-12-5,80,76,73,68,64,60,83,67,52,30.15,30.10,30.06,10,10,5,22,15,31,0.01,5,Rain,85
2011-12-6,79,76,73,68,64,60,82,66,60,30.12,30.08,30.04,10,10,10,14,10,18,0.00,4,,80
2011-12-7,82,74,64,68,65,60,90,73,58,30.10,30.03,29.96,10,10,10,20,5,26,0.00,3,,285
2011-12-8,75,67,59,67,58,47,88,70,57,30.14,30.09,30.05,10,10,10,20,13,25,0.00,4,Rain,2
2011-12-9,78,76,73,72,70,65,94,85,73,30.13,30.08,30.04,10,9,2,16,12,23,0.08,7,Rain,72
2011-12-10,80,78,75,73,71,67,94,82,69,30.14,30.08,30.05,10,10,7,15,11,23,0.01,5,Rain,77
2011-12-11,81,77,73,71,69,66,93,79,60,30.14,30.10,30.06,10,10,10,18,13,24,0.00,5,Rain,72
2011-12-12,80,76,71,73,69,66,100,82,64,30.16,30.12,30.08,10,9,2,14,10,23,0.00,5,Rain,76
2011-12-13,79,76,73,70,66,61,85,71,58,30.23,30.18,30.13,10,10,10,21,16,28,0.00,4,Rain,59
2011-12-14,77,74,72,64,60,57,76,63,54,30.25,30.21,30.17,10,10,10,22,16,28,0.01,3,,67
2011-12-15,78,75,72,62,59,57,66,60,54,30.21,30.17,30.13,10,10,10,16,13,26,0.00,6,,76
2011-12-16,79,74,69,68,64,58,94,70,55,30.19,30.16,30.13,10,10,10,13,9,,0.00,6,Rain,88
2011-12-17,75,70,66,70,68,66,100,90,74,30.19,30.15,30.11,10,10,6,15,5,,0.02,7,Rain,355
2011-12-18,78,71,64,68,62,56,100,76,57,30.24,30.18,30.14,10,10,9,17,8,22,0.01,2,,358
2011-12-19,75,72,69,58,56,54,63,58,51,30.27,30.22,30.18,10,10,10,18,13,26,0.00,4,,93
2011-12-20,79,75,71,63,61,56,68,62,57,30.22,30.17,30.13,10,10,10,18,15,25,0.00,4,,125
2011-12-21,80,76,73,70,65,61,84,70,60,30.19,30.13,30.09,10,10,10,20,15,26,0.00,2,,131
2011-12-22,81,77,73,72,69,64,90,78,58,30.17,30.12,30.09,10,10,10,17,12,21,0.00,3,,130
2011-12-23,80,76,73,73,71,70,94,84,74,30.19,30.15,30.11,10,10,10,10,8,,0.00,3,,130
2011-12-24,79,75,71,73,71,68,100,87,69,30.24,30.19,30.14,10,10,5,10,5,,0.03,4,Rain,89
2011-12-25,80,78,75,71,69,66,87,78,69,30.26,30.21,30.17,10,10,10,15,10,,0.00,3,,105
2011-12-26,79,75,71,69,68,67,87,79,66,30.20,30.15,30.11,10,10,10,12,7,,0.00,1,,115
2011-12-27,81,76,70,70,68,65,91,75,60,30.10,30.03,29.96,10,10,10,18,11,22,0.00,5,Rain,198
2011-12-28,69,62,55,65,52,43,87,69,43,30.18,30.11,30.04,10,10,10,21,12,29,0.00,2,,335
2011-12-29,73,64,54,60,51,44,83,66,57,30.15,30.10,30.06,10,10,10,10,7,,0.00,2,,322
2011-12-30,77,66,54,59,56,52,100,75,42,30.17,30.12,30.08,10,10,5,10,3,,0.00,0,,286
2011-12-31,81,70,60,62,59,53,96,66,38,30.22,30.17,30.13,10,10,10,9,3,,0.00,0,,61